ARABSAT-5A

Last updated on Tue Oct 08 2024 00:02:38 GMT+0000 (Coordinated Universal Time)

1 36745U 10032B 24281.28313341 .00000164 00000+0 00000+0 0 9992 2 36745 0.0739 52.0957 0003870 127.5218 329.2314 1.00273144 52450
UTC large
Height (km)
Speed (km/s)
/
Latitude / Longitude
Inclination (degrees)
Orbital Period (minutes)
Azimuth
Elevation
Range (km)
Doppler Factor

Next 0 passes for location: London (51.5072 / 0.1276)

Sorry there are no passes over London.